Flag for Germany Weather past 2 weeks in Friedrichshafen, Baden-Württemberg, Germany

Now
57 °F

Clear.


Feels Like: 57 °F
Forecast: 48 / 68 °F
Wind: 5 mph from Northeast

Location: Friedrichshafen Airport

Current Time: May 24, 2015 at 11:50:06 PM

Latest Report: May 24, 2015 at 10:50 PM


Visibility: 10 mi

Pressure: 30.07 "Hg

Humidity: 59%

Dew point: 43 °F

Location of FriedrichshafenLocation

Historic Weather in Friedrichshafen — Graph

°F

Friedrichshafen temperature yesterday

Maximum temperature yesterday: 61 °F (at 3:20 PM)
Minimum temperature yesterday: 46 °F (at 12:50 AM)
Average temperature yesterday: 53 °F

Past Weeks' High & Low Weather Summary

 TemperatureHumidityPressure
High82 °F (May 12, 4:20 PM)94% (May 10, 7:20 AM)30.39 "Hg (May 10, 7:20 AM)
Low43 °F (May 21, 1:50 AM)26% (May 12, 5:20 PM)29.77 "Hg (May 18, 5:50 PM)
Average57 °F68%30.10 "Hg
* Reported May 9 10:20 PM — May 24 10:20 PM, Friedrichshafen, Weather by CustomWeather, © 2015

Note: Actual official high and low records may vary slightly from our data, if they occured in-between our weather recording intervals... More about our weather records

Advertising

Friedrichshafen weather history for previous 24 hours

 ConditionsComfort  
Time TempWeatherWind HumidityBarometerVisibility
10:20 PM
Sun, May 24
59 °FClear.6 mph55%30.07 "Hg10 mi
9:50 PM59 °FSunny.7 mph55%30.04 "Hg10 mi
9:20 PM59 °FSunny.7 mph55%30.04 "Hg10 mi
8:50 PM59 °FSunny.9 mph55%30.04 "Hg10 mi
8:20 PM61 °FSunny.7 mph52%30.04 "Hg10 mi
7:50 PM61 °FSunny.10 mph52%30.04 "Hg10 mi
7:20 PM63 °FMore clouds than sun.10 mph49%30.04 "HgN/A
6:50 PM64 °FSunny.10 mph46%30.04 "Hg10 mi
6:20 PM64 °FSunny.12 mph46%30.04 "Hg10 mi
5:50 PM64 °FOvercast.9 mph46%30.04 "HgN/A
5:20 PM64 °FSunny.13 mph49%30.04 "Hg10 mi
4:50 PM64 °FPassing clouds.10 mph49%30.04 "HgN/A
4:20 PM64 °FSunny.9 mph49%30.04 "Hg10 mi
3:50 PM64 °FSunny.9 mph46%30.04 "Hg10 mi
3:20 PM64 °FSunny.10 mph46%30.07 "Hg10 mi
2:50 PM64 °FPartly sunny.10 mph49%30.07 "HgN/A
2:20 PM64 °FMore clouds than sun.12 mph46%30.07 "HgN/A
1:50 PM63 °FBroken clouds.12 mph49%30.07 "HgN/A
1:20 PM64 °FPartly sunny.7 mph46%30.07 "HgN/A
12:50 PM63 °FPartly sunny.7 mph49%30.07 "HgN/A
12:20 PM64 °FBroken clouds.7 mph46%30.07 "HgN/A
11:50 AM61 °FBroken clouds.8 mph52%30.07 "HgN/A
11:20 AM61 °FPartly sunny.5 mph52%30.07 "HgN/A
10:50 AM59 °FPassing clouds.5 mph55%30.07 "HgN/A
10:20 AM59 °FPassing clouds.5 mph59%30.07 "HgN/A
9:50 AM57 °FSunny.3 mph63%30.07 "Hg10 mi
9:20 AM55 °FSunny.3 mph67%30.07 "Hg10 mi
8:50 AM54 °FSunny.3 mph72%30.07 "Hg10 mi
8:20 AM52 °FSunny.5 mph77%30.07 "Hg10 mi
7:20 AM50 °FSunny.5 mph82%30.07 "Hg10 mi
6:50 AM50 °FSunny.2 mph82%30.07 "Hg10 mi
6:20 AM48 °FClear.5 mph87%30.07 "Hg10 mi
5:50 AM50 °FClear.2 mph82%30.07 "Hg10 mi
5:20 AM48 °FPassing clouds.2 mph82%30.07 "HgN/A
4:50 AM48 °FClear.3 mph82%30.04 "Hg10 mi
4:20 AM50 °FClear.5 mph76%30.07 "Hg10 mi
3:50 AM50 °FMostly cloudy.3 mph82%30.07 "HgN/A
3:20 AM50 °FClear.3 mph76%30.07 "Hg10 mi
2:50 AM50 °FOvercast.3 mph76%30.07 "HgN/A
2:20 AM50 °FMostly cloudy.3 mph82%30.07 "HgN/A
1:50 AM50 °FMostly cloudy.5 mph76%30.07 "HgN/A
1:20 AM50 °FMostly cloudy.3 mph82%30.07 "HgN/A
12:50 AM50 °FSprinkles. Mostly cloudy.3 mph76%30.09 "HgN/A
12:20 AM50 °FSprinkles. Mostly cloudy.2 mph82%30.09 "HgN/A
11:50 PM
Sat, May 23
52 °FOvercast.2 mph72%30.09 "HgN/A
11:20 PM52 °FOvercast.2 mph72%30.09 "HgN/A
Weather by CustomWeather, © 2015

See weather overviewHow to use our weather pages